This is the latest recevied weather packets stored in our database for station/object K8MUD. If no packets are shown the sender has not sent any weather packets the latest 10 day(s).
| Time | Temp. | Humidity | Pressure | Rain* | Wind** | Luminosity | Snow |
|---|---|---|---|---|---|---|---|
| 1777987535 | 17.78° C | 68% | 1003.5 hPa | 0 mm | - | - | - |
| 1777987235 | 17.78° C | 69% | 1002.9 hPa | 0 mm | - | - | - |
| 1777986935 | 17.22° C | 70% | 1002.8 hPa | 0 mm | - | - | - |
| 1777986635 | 17.22° C | 72% | 1002.8 hPa | 0 mm | - | - | - |
| 1777986335 | 16.67° C | 73% | 1003 hPa | 0 mm | - | - | - |
| 1777986035 | 16.67° C | 73% | 1002.9 hPa | 0 mm | - | - | - |
| 1777985735 | 16.67° C | 75% | 1002.8 hPa | 0 mm | - | - | - |
| 1777985435 | 16.11° C | 76% | 1003 hPa | 0 mm | - | - | - |
| 1777985135 | 16.11° C | 77% | 1002.6 hPa | 0 mm | - | - | - |
| 1777984835 | 16.11° C | 77% | 1002.8 hPa | 0 mm | - | - | - |
| 1777984535 | 15.56° C | 77% | 1002.9 hPa | 0 mm | - | - | - |
| 1777984234 | 15.56° C | 78% | 1003.1 hPa | 0 mm | - | - | - |
| 1777983934 | 15.56° C | 78% | 1003.1 hPa | 0 mm | - | - | - |
| 1777983634 | 15.56° C | 79% | 1002.7 hPa | 0 mm | - | - | - |
| 1777983334 | 15.56° C | 79% | 1002.9 hPa | 0 mm | - | - | - |
| 1777983034 | 15° C | 80% | 1003 hPa | 0 mm | - | - | - |
| 1777982734 | 15° C | 80% | 1002.9 hPa | 0 mm | - | - | - |
| 1777982434 | 15.56° C | 80% | 1003 hPa | 0 mm | - | - | - |
| 1777982134 | 15° C | 80% | 1002.9 hPa | 0 mm | - | - | - |
| 1777981834 | 15° C | 81% | 1002.8 hPa | 0 mm | - | - | - |
| 1777981534 | 15° C | 80% | 1002.9 hPa | 0 mm | - | - | - |
| 1777981234 | 15° C | 81% | 1002.7 hPa | 0 mm | - | - | - |
| 1777980934 | 15° C | 81% | 1002.4 hPa | 0 mm | - | - | - |
| 1777980634 | 15° C | 81% | 1002.2 hPa | 0 mm | - | - | - |
| 1777980333 | 15° C | 80% | 1002 hPa | 0 mm | - | - | - |
* Rain latest hour (hover to see other rain measurements)
** Current wind speed in m/s (hover to see current wind gust speed)